Flag for U.S.A. Weather past 2 weeks in Avalon (Santa Catalina Island), California, U.S.A.

Now
56 °F

Mostly cloudy.


Feels Like: 52 °F
Forecast: 58 / 65 °F
Wind: 15 mph from West

Location: Catalina Airport

Current Time: May 22, 2015 at 2:13:05 PM

Latest Report: May 22, 2015 at 1:51 PM


Visibility: 10 mi

Pressure: 30.03 "Hg

Humidity: 81%

Dew point: 50 °F

Location of Avalon (Santa Catalina Island)Location

Historic Weather in Avalon (Santa Catalina Island) — Graph

°F

Avalon (Santa Catalina Island) temperature yesterday

Maximum temperature yesterday: 57 °F (at 1:04 PM)
Minimum temperature yesterday: 51 °F (at 1:04 AM)
Average temperature yesterday: 54 °F

Past Weeks' High & Low Weather Summary

 TemperatureHumidityPressure
High71 °F (May 11, 2:51 PM)100% (May 8, 6:58 AM)30.09 "Hg (May 8, 6:58 AM)
Low46 °F (May 8, 5:53 AM)38% (May 11, 2:51 PM)29.81 "Hg (May 11, 5:51 PM)
Average54 °F85%29.96 "Hg
* Reported May 7 12:51 PM — May 22 12:51 PM, Avalon (Santa Catalina Island), Weather by CustomWeather, © 2015

Note: Actual official high and low records may vary slightly from our data, if they occured in-between our weather recording intervals... More about our weather records

Advertising

Avalon (Santa Catalina Island) weather history for previous 24 hours

 ConditionsComfort  
Time TempWeatherWind HumidityBarometerVisibility
12:51 PM
Fri, May 22
57 °FPartly sunny.14 mph74%30.03 "Hg10 mi
11:51 AM56 °FMostly cloudy.17 mph77%30.04 "Hg10 mi
10:55 AM57 °FPartly sunny.14 mph72%30.05 "Hg10 mi
9:51 AM55 °FPartly sunny.14 mph83%30.03 "Hg10 mi
8:51 AM55 °FBroken clouds.16 mph80%30.02 "Hg10 mi
7:51 AM54 °FBroken clouds.14 mph83%30.01 "Hg10 mi
6:51 AM52 °FPassing clouds.15 mph89%30.00 "Hg10 mi
5:51 AM51 °FPassing clouds.17 mph96%29.98 "Hg10 mi
4:51 AM51 °FPassing clouds.13 mph89%29.98 "Hg10 mi
3:51 AM51 °FPassing clouds.15 mph92%29.98 "Hg10 mi
2:51 AM52 °FMostly cloudy.18 mph89%29.98 "Hg10 mi
1:51 AM52 °FPassing clouds.17 mph89%29.98 "Hg10 mi
12:51 AM52 °FPassing clouds.15 mph93%30.00 "Hg10 mi
11:51 PM
Thu, May 21
52 °FOvercast.15 mph89%30.00 "Hg10 mi
10:51 PM53 °FMostly cloudy.15 mph86%30.00 "Hg10 mi
9:51 PM53 °FMostly cloudy.20 mph89%29.99 "Hg10 mi
9:04 PM53 °FMostly cloudy.18 mph89%29.99 "Hg10 mi
8:51 PM53 °FPassing clouds.15 mph89%29.98 "Hg10 mi
7:51 PM53 °FPartly sunny.15 mph89%29.97 "Hg10 mi
6:51 PM54 °FMostly cloudy.18 mph86%29.96 "Hg10 mi
6:03 PM55 °FBroken clouds.14 mph83%29.97 "Hg10 mi
5:51 PM56 °FPartly sunny.17 mph75%29.95 "Hg10 mi
4:51 PM56 °FPartly sunny.15 mph72%29.95 "Hg10 mi
3:51 PM57 °FPartly sunny.10 mph74%29.96 "Hg10 mi
2:51 PM57 °FMostly cloudy.10 mph81%29.97 "Hg10 mi
Weather by CustomWeather, © 2015

See weather overviewHow to use our weather pages